User: anonymous   Login
Location: Unspecified
(0.0000°N, 0.0000°E)
Time: 02:42:55
(UTC+01:00)
Language:

Cosmos 1892 Rocket - Orbit

View from above orbital plane
View from above orbital plane
View from above satellite
View from above satellite

Ground track
Ground track

The orbit data is extracted from the following two-line orbital elements,

1 18422U 87088B   17020.91565663 +.00000087 +00000-0 +77159-5 0  9998
2 18422 082.5137 314.8670 0018992 200.1058 202.7356 14.82906646558907
Epoch (UTC): 20 January 2017 21:58:32
Eccentricity: 0.0018992
inclination: 82.5137°
perigee height: 607 km
apogee height: 633 km
right ascension of ascending node: 314.8670°
argument of perigee: 200.1058°
revolutions per day: 14.82906646
mean anomaly at epoch: 202.7356°
orbit number at epoch: 55890

The dashed part of the orbit path shows where the satellite is in the earth's shadow,  

DLR